EW2546 Weather Reports


time (UTC)temp
C
wind
direction
speed
KPH
gust
KPH
rain 1hr
cm
rain 24hr
cm
rain mn
cm
humidity
%
barometer
mb
20260506003035 16 0 0.0 4.8 0.00 0.00 0.00 71 1007.6
20260506002524 16 0 0.0 4.8 0.00 0.00 0.00 75 1007.3
20260506002025 16 0 0.0 0.0 0.00 0.00 0.00 74 1006.8
20260506001543 16 0 0.0 0.0 0.00 0.00 0.00 74 1006.5
20260506001025 17 0 0.0 0.0 0.00 0.00 0.00 73 1006.5
20260506000527 17 0 0.0 0.0 0.00 0.00 0.00 72 1006.0
20260506000042 17 0 0.0 0.0 0.00 0.00 0.00 70 1005.9
20260505235528 17 0 0.0 0.0 0.00 0.00 0.00 68 1005.9
20260505235026 17 0 0.0 0.0 0.00 0.00 0.00 67 1006.5
20260505234538 17 0 0.0 0.0 0.00 0.00 0.00 67 1006.5
20260505234026 17 0 0.0 0.0 0.00 0.00 0.00 66 1006.9
20260505233525 17 0 0.0 0.0 0.00 0.00 0.00 65 1006.8
20260505233038 18 0 0.0 3.2 0.00 0.00 0.00 64 1006.7
20260505232525 18 0 0.0 4.8 0.00 0.00 0.00 63 1006.7
20260505232033 18 0 0.0 16.1 0.00 0.00 0.00 62 1006.9
20260505231544 18 0 0.0 16.1 0.00 0.00 0.00 61 1006.9
20260505231024 18 280 1.6 16.1 0.00 0.00 0.00 60 1006.8
20260505230524 17 195 3.2 19.3 0.00 0.00 0.00 60 1006.7
20260505230042 17 239 4.8 19.3 0.00 0.00 0.00 61 1006.5
20260505225525 17 0 3.2 12.9 0.00 0.00 0.00 60 1005.1
20260505225025 17 180 0.0 12.9 0.00 0.00 0.00 61 1004.7
20260505224540 17 160 0.0 12.9 0.00 0.00 0.00 60 1004.6
20260505224025 17 0 4.8 11.3 0.00 0.00 0.00 60 1004.4
20260505223525 17 139 1.6 17.7 0.00 0.00 0.00 60 1004.4
20260505223039 18 0 3.2 29.0 0.00 0.00 0.00 59 1004.3
20260505222524 18 199 4.8 29.0 0.00 0.00 0.00 58 1004.4
20260505222026 18 172 8.0 29.0 0.00 0.00 0.00 57 1004.3
20260505221540 18 181 8.0 25.7 0.00 0.00 0.00 57 1004.2
20260505221025 18 274 9.7 25.7 0.00 0.00 0.00 57 1004.3
20260505220526 18 192 8.0 29.0 0.00 0.00 0.00 57 1004.2
20260505220041 18 221 11.3 29.0 0.00 0.00 0.00 56 1004.0
20260505215526 19 155 8.0 27.4 0.00 0.00 0.00 55 1004.0
20260505215025 19 216 8.0 27.4 0.00 0.00 0.00 55 1004.1
20260505214559 19 249 9.7 27.4 0.00 0.00 0.00 55 1004.0
20260505214025 19 149 4.8 32.2 0.00 0.00 0.00 56 1004.1
20260505213524 19 161 9.7 32.2 0.00 0.00 0.00 56 1004.0
20260505213035 19 129 11.3 32.2 0.00 0.00 0.00 55 1004.0
20260505212525 19 268 3.2 19.3 0.00 0.00 0.00 56 1003.9
20260505212029 20 139 4.8 25.7 0.00 0.00 0.00 55 1004.0
20260505211541 20 232 6.4 25.7 0.00 0.00 0.00 55 1004.0
20260505211025 20 155 6.4 19.3 0.00 0.00 0.00 53 1004.0
20260505210524 20 205 6.4 19.3 0.00 0.00 0.00 53 1003.7
20260505210042 20 168 8.0 19.3 0.00 0.00 0.00 53 1003.7
20260505205524 21 137 6.4 22.5 0.00 0.00 0.00 53 1003.8
20260505205025 20 151 8.0 24.1 0.00 0.00 0.00 54 1003.8
20260505204539 20 151 9.7 24.1 0.00 0.00 0.00 53 1003.8
20260505204025 20 181 4.8 22.5 0.00 0.00 0.00 53 1003.9
20260505203525 21 0 6.4 22.5 0.00 0.00 0.00 53 1004.0
20260505203036 21 165 8.0 22.5 0.00 0.00 0.00 52 1003.9
20260505202524 21 157 3.2 22.5 0.00 0.00 0.00 54 1003.9
20260505202025 21 0 4.8 22.5 0.00 0.00 0.00 52 1003.8
20260505201541 21 0 4.8 17.7 0.00 0.00 0.00 52 1004.0
20260505201026 21 132 6.4 17.7 0.00 0.00 0.00 52 1004.1
20260505200525 21 0 3.2 24.1 0.00 0.00 0.00 51 1004.2
20260505200047 21 0 8.0 24.1 0.00 0.00 0.00 51 1004.2
20260505195524 21 136 4.8 19.3 0.00 0.00 0.00 51 1004.2
20260505195024 21 241 3.2 19.3 0.00 0.00 0.00 52 1004.3
20260505194540 21 205 6.4 19.3 0.00 0.00 0.00 51 1004.3
20260505194024 22 222 1.6 17.7 0.00 0.00 0.00 51 1004.4
20260505193524 22 172 4.8 16.1 0.00 0.00 0.00 52 1004.6
20260505193038 22 184 3.2 17.7 0.00 0.00 0.00 49 1004.4
20260505192524 22 143 3.2 24.1 0.00 0.00 0.00 51 1004.5
20260505192024 22 152 4.8 24.1 0.00 0.00 0.00 51 1004.5
20260505191543 22 0 6.4 24.1 0.00 0.00 0.00 51 1004.7
20260505191024 21 211 1.6 19.3 0.00 0.00 0.00 52 1004.8
20260505190524 21 155 1.6 17.7 0.00 0.00 0.00 53 1005.0
20260505190040 21 169 6.4 22.5 0.00 0.00 0.00 52 1005.0
20260505185525 21 201 8.0 22.5 0.00 0.00 0.00 51 1005.0
20260505185028 21 206 6.4 17.7 0.00 0.00 0.00 52 1004.9
20260505184541 21 180 3.2 19.3 0.00 0.00 0.00 52 1005.1
20260505184025 21 155 4.8 19.3 0.00 0.00 0.00 53 1005.1
20260505183524 21 113 8.0 19.3 0.00 0.00 0.00 53 1005.2
20260505183050 21 207 6.4 19.3 0.00 0.00 0.00 54 1005.2
20260505182524 21 193 4.8 20.9 0.00 0.00 0.00 51 1005.3
20260505182024 21 155 3.2 20.9 0.00 0.00 0.00 52 1005.3
20260505181539 22 148 3.2 16.1 0.00 0.00 0.00 52 1005.4
20260505181026 22 0 1.6 16.1 0.00 0.00 0.00 52 1005.2
20260505180524 22 161 3.2 19.3 0.00 0.00 0.00 51 1005.3
20260505180041 21 0 3.2 20.9 0.00 0.00 0.00 52 1005.1
20260505175524 21 162 6.4 20.9 0.00 0.00 0.00 50 1005.2
20260505175027 22 149 8.0 20.9 0.00 0.00 0.00 50 1005.3
20260505174544 22 150 0.0 17.7 0.00 0.00 0.00 50 1005.3
20260505174025 22 180 3.2 17.7 0.00 0.00 0.00 48 1005.5
20260505173525 22 174 4.8 17.7 0.00 0.00 0.00 47 1005.5
20260505173042 23 134 1.6 17.7 0.00 0.00 0.00 46 1005.5
20260505172525 23 0 0.0 17.7 0.00 0.00 0.00 49 1005.7
20260505172024 23 112 1.6 16.1 0.00 0.00 0.00 49 1005.8
20260505171546 23 155 0.0 16.1 0.00 0.00 0.00 49 1005.9
20260505171025 23 177 3.2 16.1 0.00 0.00 0.00 49 1005.9
20260505170524 23 125 1.6 12.9 0.00 0.00 0.00 47 1006.0
20260505170039 23 156 1.6 16.1 0.00 0.00 0.00 48 1006.1
20260505165524 23 227 4.8 20.9 0.00 0.00 0.00 47 1006.2
20260505165024 22 187 3.2 20.9 0.00 0.00 0.00 48 1006.5
20260505164537 22 137 4.8 12.9 0.00 0.00 0.00 48 1006.4
20260505164024 22 194 1.6 16.1 0.00 0.00 0.00 50 1006.4
20260505163525 22 151 3.2 16.1 0.00 0.00 0.00 50 1006.7
20260505163035 22 175 3.2 14.5 0.00 0.00 0.00 50 1006.9
20260505162524 21 0 1.6 17.7 0.00 0.00 0.00 51 1007.1
20260505162025 21 176 0.0 17.7 0.00 0.00 0.00 52 1007.0
20260505161543 21 161 1.6 12.9 0.00 0.00 0.00 52 1007.0
20260505161023 21 112 4.8 12.9 0.00 0.00 0.00 53 1007.2
20260505160527 20 0 1.6 6.4 0.00 0.00 0.00 55 1007.2
20260505153035 17 0 0.0 12.9 0.00 0.00 0.00 62 1007.9
20260505152525 17 136 1.6 12.9 0.00 0.00 0.00 63 1008.0
20260505152029 17 0 1.6 12.9 0.00 0.00 0.00 65 1008.1
20260505151536 16 137 1.6 12.9 0.00 0.00 0.00 66 1008.2
20260505151026 16 0 0.0 11.3 0.00 0.00 0.00 67 1008.2
20260505150530 15 0 0.0 14.5 0.00 0.00 0.00 68 1008.3
20260505140526 17 0 0.0 6.4 0.00 0.00 0.00 58 1007.5
20260505125026 15 0 0.0 6.4 0.00 0.00 0.00 65 1007.9
20260505124540 15 0 0.0 6.4 0.00 0.00 0.00 66 1007.9
20260505124027 15 167 0.0 4.8 0.00 0.00 0.00 66 1007.9
20260505123526 14 0 0.0 6.4 0.00 0.00 0.00 67 1008.0
20260505123042 14 0 0.0 8.0 0.00 0.00 0.00 69 1008.1
20260505122526 13 0 0.0 8.0 0.00 0.00 0.00 69 1008.1
20260505122027 13 0 0.0 9.7 0.00 0.00 0.00 69 1008.0
20260505121539 13 0 1.6 9.7 0.00 0.00 0.00 71 1008.1
20260505121026 13 0 0.0 3.2 0.00 0.00 0.00 72 1008.1
20260505120526 12 0 0.0 6.4 0.00 0.00 0.00 74 1008.2
20260505120046 12 171 0.0 6.4 0.00 0.00 0.00 74 1008.2
20260505115529 12 0 0.0 8.0 0.00 0.00 0.00 75 1008.3
20260505115027 11 0 0.0 8.0 0.00 0.00 0.00 77 1008.4
20260505114545 11 228 0.0 12.9 0.00 0.00 0.00 79 1008.5
20260505114024 11 0 0.0 12.9 0.00 0.00 0.00 79 1008.6
20260505113526 10 248 0.0 8.0 0.00 0.00 0.00 82 1008.8
20260505113039 10 0 0.0 6.4 0.00 0.00 0.00 85 1008.4
20260505112526 9 0 0.0 6.4 0.00 0.00 0.00 87 1008.5
20260505112026 8 0 0.0 0.0 0.00 0.00 0.00 90 1008.4
20260505111538 7 0 0.0 0.0 0.00 0.00 0.00 91 1008.5
20260505111026 7 0 0.0 0.0 0.00 0.00 0.00 91 1008.5
20260505110523 7 0 0.0 0.0 0.00 0.00 0.00 91 1008.6
20260505102026 6 0 0.0 0.0 0.00 0.00 0.00 91 1008.5
20260505101549 6 0 0.0 0.0 0.00 0.00 0.00 91 1008.4
20260505101026 6 0 0.0 0.0 0.00 0.00 0.00 91 1008.5
20260505100525 6 0 0.0 0.0 0.00 0.00 0.00 91 1008.5
20260505100038 6 0 0.0 0.0 0.00 0.00 0.00 91 1008.4
20260505095526 6 0 0.0 0.0 0.00 0.00 0.00 91 1008.3
20260505095029 6 0 0.0 0.0 0.00 0.00 0.00 91 1008.4
20260505094540 6 0 0.0 0.0 0.00 0.00 0.00 90 1008.4
20260505094026 6 0 0.0 0.0 0.00 0.00 0.00 91 1008.3
20260505093526 6 0 0.0 0.0 0.00 0.00 0.00 90 1008.4
20260505093035 6 0 0.0 0.0 0.00 0.00 0.00 90 1008.3
20260505092527 6 0 0.0 0.0 0.00 0.00 0.00 90 1008.3
20260505092026 6 0 0.0 0.0 0.00 0.00 0.00 90 1008.3
20260505091537 6 0 0.0 0.0 0.00 0.00 0.00 90 1008.4
20260505091027 6 0 0.0 0.0 0.00 0.00 0.00 89 1008.4
20260505090525 6 0 0.0 0.0 0.00 0.00 0.00 89 1008.4
20260505090042 6 0 0.0 0.0 0.00 0.00 0.00 89 1008.6
20260505085529 6 0 0.0 0.0 0.00 0.00 0.00 89 1008.6
20260505085029 6 0 0.0 0.0 0.00 0.00 0.00 89 1008.6
20260505084541 6 0 0.0 0.0 0.00 0.00 0.00 88 1008.6
20260505084025 6 0 0.0 0.0 0.00 0.00 0.00 88 1008.6
20260505083525 6 0 0.0 0.0 0.00 0.00 0.00 88 1008.7
20260505083035 6 0 0.0 0.0 0.00 0.00 0.00 88 1008.8
20260505082528 6 0 0.0 0.0 0.00 0.00 0.00 88 1008.7
20260505082026 6 0 0.0 0.0 0.00 0.00 0.00 87 1008.7
20260505081535 6 0 0.0 0.0 0.00 0.00 0.00 87 1008.8
20260505081026 6 0 0.0 0.0 0.00 0.00 0.00 87 1008.8
20260505080526 6 0 0.0 0.0 0.00 0.00 0.00 87 1008.7
20260505080044 6 0 0.0 0.0 0.00 0.00 0.00 86 1008.7
20260505075555 6 0 0.0 0.0 0.00 0.00 0.00 86 1008.8
20260505075026 6 0 0.0 0.0 0.00 0.00 0.00 86 1008.8
20260505074540 6 0 0.0 0.0 0.00 0.00 0.00 86 1008.8
20260505074026 7 0 0.0 0.0 0.00 0.00 0.00 86 1008.8
20260505073528 7 0 0.0 0.0 0.00 0.00 0.00 86 1008.7
20260505073047 7 0 0.0 0.0 0.00 0.00 0.00 86 1008.7
20260505072526 7 0 0.0 0.0 0.00 0.00 0.00 85 1008.6
20260505072027 7 0 0.0 0.0 0.00 0.00 0.00 85 1008.6
20260505071549 7 0 0.0 0.0 0.00 0.00 0.00 84 1008.6
20260505071026 7 0 0.0 0.0 0.00 0.00 0.00 84 1008.6
20260505070528 7 0 0.0 0.0 0.00 0.00 0.00 84 1008.7
20260505070039 7 0 0.0 0.0 0.00 0.00 0.00 83 1008.7
20260505065527 7 0 0.0 0.0 0.00 0.00 0.00 83 1008.7
20260505065026 7 0 0.0 0.0 0.00 0.00 0.00 84 1008.7
20260505064543 7 0 0.0 0.0 0.00 0.00 0.00 83 1008.6
20260505064026 7 0 0.0 0.0 0.00 0.00 0.00 83 1008.5
20260505063525 7 0 0.0 0.0 0.00 0.00 0.00 83 1008.6
20260505063038 7 0 0.0 0.0 0.00 0.00 0.00 82 1008.5
20260505062529 7 0 0.0 0.0 0.00 0.00 0.00 81 1008.4
20260505062026 8 0 0.0 0.0 0.00 0.00 0.00 81 1008.4
20260505061542 8 0 0.0 0.0 0.00 0.00 0.00 81 1008.4
20260505061027 8 0 0.0 0.0 0.00 0.00 0.00 81 1008.5
20260505060529 8 0 0.0 0.0 0.00 0.00 0.00 81 1008.5
20260505060047 8 0 0.0 0.0 0.00 0.00 0.00 80 1008.5
20260505055527 8 0 0.0 0.0 0.00 0.00 0.00 79 1008.5
20260505055025 8 0 0.0 0.0 0.00 0.00 0.00 78 1008.5
20260505054538 8 0 0.0 0.0 0.00 0.00 0.00 77 1008.3
20260505054025 8 0 0.0 0.0 0.00 0.00 0.00 77 1008.5
20260505053525 9 0 0.0 0.0 0.00 0.00 0.00 76 1008.5
20260505053043 9 0 0.0 0.0 0.00 0.00 0.00 76 1008.4
20260505052525 9 0 0.0 0.0 0.00 0.00 0.00 75 1008.4
20260505052027 9 0 0.0 0.0 0.00 0.00 0.00 75 1008.3
20260505051548 9 0 0.0 0.0 0.00 0.00 0.00 75 1008.3
20260505051026 9 0 0.0 0.0 0.00 0.00 0.00 75 1008.2
20260505050530 9 0 0.0 1.6 0.00 0.00 0.00 75 1008.2
20260505041538 11 0 0.0 0.0 0.00 0.00 0.00 71 1007.9
20260505041026 11 0 0.0 0.0 0.00 0.00 0.00 72 1007.8
20260505040526 10 0 0.0 6.4 0.00 0.00 0.00 72 1007.7
20260505040042 10 0 0.0 6.4 0.00 0.00 0.00 73 1007.6
20260505035526 10 210 0.0 4.8 0.00 0.00 0.00 75 1007.6
20260505035025 10 0 0.0 6.4 0.00 0.00 0.00 77 1007.6
20260505034540 9 0 0.0 6.4 0.00 0.00 0.00 78 1007.6
20260505034025 8 0 0.0 0.0 0.00 0.00 0.00 80 1007.6
20260505033525 8 0 0.0 0.0 0.00 0.00 0.00 81 1007.6
20260505033038 8 0 0.0 0.0 0.00 0.00 0.00 81 1007.5
20260505032524 8 0 0.0 0.0 0.00 0.00 0.00 81 1007.6
20260505032026 8 0 0.0 0.0 0.00 0.00 0.00 81 1007.6
20260505031536 8 0 0.0 0.0 0.00 0.00 0.00 81 1007.6
20260505031025 8 0 0.0 0.0 0.00 0.00 0.00 80 1007.5
20260505030525 8 0 0.0 0.0 0.00 0.00 0.00 80 1007.4
20260505030043 8 0 0.0 0.0 0.00 0.00 0.00 80 1007.5
20260505025526 8 0 0.0 0.0 0.00 0.00 0.00 80 1007.5
20260505025025 8 0 0.0 0.0 0.00 0.00 0.00 79 1007.5
20260505024540 8 0 0.0 0.0 0.00 0.00 0.00 79 1007.5
20260505024025 8 0 0.0 0.0 0.00 0.00 0.00 79 1007.5
20260505023525 9 0 0.0 0.0 0.00 0.00 0.00 78 1007.5
20260505023041 9 0 0.0 0.0 0.00 0.00 0.00 78 1007.5
20260505022525 9 0 0.0 0.0 0.00 0.00 0.00 77 1007.5
20260505022029 9 0 0.0 0.0 0.00 0.00 0.00 77 1007.5
20260505021538 9 0 0.0 0.0 0.00 0.00 0.00 76 1007.5
20260505021029 9 0 0.0 0.0 0.00 0.00 0.00 76 1007.5
20260505020525 9 0 0.0 0.0 0.00 0.00 0.00 76 1007.4
20260505020038 9 0 0.0 0.0 0.00 0.00 0.00 76 1007.4
20260505015526 10 0 0.0 0.0 0.00 0.00 0.00 76 1007.4
20260505015029 10 0 0.0 0.0 0.00 0.00 0.00 75 1007.4
20260505014536 10 0 0.0 0.0 0.00 0.00 0.00 74 1007.3
20260505014029 10 0 0.0 0.0 0.00 0.00 0.00 74 1007.3
20260505013525 10 0 0.0 0.0 0.00 0.00 0.00 74 1007.3
20260505013055 10 0 0.0 0.0 0.00 0.00 0.00 73 1007.1
20260505012525 10 0 0.0 0.0 0.00 0.00 0.00 73 1007.1
20260505012026 10 0 0.0 0.0 0.00 0.00 0.00 73 1007.0
20260505011541 10 0 0.0 0.0 0.00 0.00 0.00 71 1006.9
20260505011025 11 0 0.0 0.0 0.00 0.00 0.00 71 1006.8
20260505010525 11 0 0.0 0.0 0.00 0.00 0.00 71 1006.8
20260505010041 11 0 0.0 0.0 0.00 0.00 0.00 70 1006.8
20260505005529 11 0 0.0 0.0 0.00 0.00 0.00 69 1006.8
20260505005023 11 0 0.0 0.0 0.00 0.00 0.00 69 1006.7
20260505004539 11 0 0.0 0.0 0.00 0.00 0.00 69 1006.5
20260505004026 11 0 0.0 0.0 0.00 0.00 0.00 69 1006.5
20260505003528 12 0 0.0 0.0 0.00 0.00 0.00 67 1006.4